Starlink 33560

operational
NORAD ID: 62282 Int'l Des: 2024-237 Owner: SPXS Country: US Constellation: starlink
LEOCIRCULAR

Über Starlink 33560

Beschreibung wird geladen...

Live-Position

3D-Globus wird geladen...

Nächste Überflüge

Höhenverlauf

Altitude vs Time

uPlot chart will show altitude changes over time

Zweizeiliger Elementsatz

1 62282U 24237R 25306.45861209 .00021606 00000-0 79202-3 0 9997
2 62282 43.0024 214.8913 0000706 281.9987 78.0785 15.27593951 51648
Epoch: 2. Nov. 2025 • Age: 18 hours

Aktueller Status

Höhe 485.6 km
Geschwindigkeit 7.63 km/s
Subsatellitenpunkt 38.83°N, 142.56°W
Startdatum 8. Dez. 2024
Alter 0.9 years
Typ internet

Technische Details

Klassifizierung Payload
Masse 530.00 kg
Trockenmasse 500.00 kg
Gesamtmasse 530.00 kg
Länge 0.30 m
Durchmesser 4.10 m
Spannweite 29.00 m
Form Box + pan
Hersteller SPXS
Bus-Typ Starlink V2MO
Phasenstatus In Orbit
Besitzer/Staat SPXS/US

Große Konstellationen

Loading constellations...